9A3XK-13 Weather Reports


Display with metric or nautical units.
time (UTC)temp
F
wind
direction
speed
MPH
gust
MPH
rain 1hr
in
rain 24hr
in
rain mn
in
humidity
%
barometer
mb
20260504205516 59 0.0 0.0 0.00 0.00 0.00 59 1014.9
20260504205016 59 0.0 0.0 0.00 0.00 0.00 59 1014.9
20260504204516 59 0.0 0.0 0.00 0.00 0.00 57 1014.9
20260504204016 60 0.0 0.0 0.00 0.00 0.00 57 1014.9
20260504203517 60 0.0 0.0 0.00 0.00 0.00 56 1014.8
20260504203016 60 0.0 0.0 0.00 0.00 0.00 56 1014.9
20260504202516 60 0.0 0.0 0.00 0.00 0.00 55 1014.8
20260504202016 61 0.0 0.0 0.00 0.00 0.00 55 1014.8
20260504201516 61 0.0 0.0 0.00 0.00 0.00 54 1014.7
20260504201016 61 0.0 0.0 0.00 0.00 0.00 54 1014.7
20260504200516 62 0.0 0.0 0.00 0.00 0.00 54 1014.7
20260504200016 62 0.0 0.0 0.00 0.00 0.00 53 1014.6
20260504195516 62 0.0 0.0 0.00 0.00 0.00 53 1014.7
20260504195016 63 0.0 0.0 0.00 0.00 0.00 53 1014.7
20260504194516 63 0.0 0.0 0.00 0.00 0.00 52 1014.7
20260504194017 63 0.0 0.0 0.00 0.00 0.00 51 1014.6
20260504193516 64 0.0 0.0 0.00 0.00 0.00 49 1014.7
20260504193017 64 0.0 0.0 0.00 0.00 0.00 47 1014.6
20260504192516 64 0.0 2.0 0.00 0.00 0.00 45 1014.6
20260504192016 65 113 1.0 3.0 0.00 0.00 0.00 45 1014.6
20260504191517 65 113 2.0 4.0 0.00 0.00 0.00 44 1014.5
20260504191016 65 113 2.0 6.0 0.00 0.00 0.00 46 1014.5
20260504190516 66 113 1.0 3.0 0.00 0.00 0.00 48 1014.4
20260504190016 66 113 1.0 3.0 0.00 0.00 0.00 47 1014.3
20260504185516 67 0.0 2.0 0.00 0.00 0.00 46 1014.3
20260504185017 67 0.0 0.0 0.00 0.00 0.00 44 1014.3
20260504184516 68 0.0 0.0 0.00 0.00 0.00 43 1014.2
20260504184016 68 0.0 0.0 0.00 0.00 0.00 41 1014.1
20260504183516 68 113 1.0 4.0 0.00 0.00 0.00 40 1014.0
20260504183016 69 113 3.0 4.0 0.00 0.00 0.00 40 1014.0
20260504182516 69 135 2.0 3.0 0.00 0.00 0.00 41 1014.0
20260504182016 70 135 2.0 3.0 0.00 0.00 0.00 40 1014.0
20260504181516 71 135 1.0 3.0 0.00 0.00 0.00 40 1013.9
20260504181016 71 135 1.0 2.0 0.00 0.00 0.00 38 1013.9
20260504180516 72 0.0 1.0 0.00 0.00 0.00 37 1014.0
20260504180016 73 135 1.0 2.0 0.00 0.00 0.00 36 1013.9
20260504175516 74 135 1.0 2.0 0.00 0.00 0.00 34 1014.0
20260504175016 74 135 1.0 2.0 0.00 0.00 0.00 32 1013.9
20260504174516 75 135 1.0 3.0 0.00 0.00 0.00 31 1013.9
20260504174016 75 135 1.0 3.0 0.00 0.00 0.00 29 1013.9
20260504173516 76 135 2.0 4.0 0.00 0.00 0.00 28 1013.9
20260504173016 76 135 1.0 3.0 0.00 0.00 0.00 28 1014.0
20260504172515 77 135 1.0 3.0 0.00 0.00 0.00 28 1013.9
20260504172016 77 135 2.0 4.0 0.00 0.00 0.00 27 1013.9
20260504171516 77 135 1.0 3.0 0.00 0.00 0.00 27 1013.9
20260504171016 78 135 3.0 6.0 0.00 0.00 0.00 27 1013.9
20260504170515 78 158 3.0 6.0 0.00 0.00 0.00 26 1013.9
20260504151016 82 158 4.0 8.0 0.00 0.00 0.00 24 1014.5
20260504150515 82 180 4.0 9.0 0.00 0.00 0.00 23 1014.6
20260504141015 82 158 5.0 11.0 0.00 0.00 0.00 21 1014.9
20260504140515 82 135 6.0 10.0 0.00 0.00 0.00 22 1014.9
20260504130515 81 158 4.0 10.0 0.00 0.00 0.00 23 1015.7
20260504110517 78 113 4.0 8.0 0.00 0.00 0.00 26 1017.0
20260504100517 75 180 6.0 11.0 0.00 0.00 0.00 28 1017.9
20260504081516 67 158 6.0 11.0 0.00 0.00 0.00 44 1018.3
20260504081017 67 158 5.0 11.0 0.00 0.00 0.00 45 1018.4
20260504080516 66 180 4.0 9.0 0.00 0.00 0.00 45 1018.4
20260504050516 48 158 2.0 5.0 0.00 0.00 0.00 73 1018.4
20260504050016 48 135 2.0 5.0 0.00 0.00 0.00 73 1018.4
20260504045516 48 180 2.0 6.0 0.00 0.00 0.00 74 1018.4
20260504045016 48 158 1.0 2.0 0.00 0.00 0.00 75 1018.3
20260504044516 48 248 1.0 3.0 0.00 0.00 0.00 74 1018.3
20260504044016 47 135 2.0 4.0 0.00 0.00 0.00 74 1018.2
20260504043516 47 135 1.0 3.0 0.00 0.00 0.00 73 1018.2
20260504043016 47 135 1.0 3.0 0.00 0.00 0.00 73 1018.1
20260504042516 47 0.0 3.0 0.00 0.00 0.00 73 1018.0
20260504042016 47 135 1.0 3.0 0.00 0.00 0.00 73 1018.0
20260504041516 47 135 1.0 6.0 0.00 0.00 0.00 74 1018.1
20260504041016 46 113 3.0 5.0 0.00 0.00 0.00 74 1018.0
20260504040516 46 135 2.0 6.0 0.00 0.00 0.00 75 1018.0
20260504040016 46 113 2.0 4.0 0.00 0.00 0.00 75 1018.0
20260504035516 46 135 1.0 3.0 0.00 0.00 0.00 75 1018.0
20260504035016 46 113 1.0 3.0 0.00 0.00 0.00 75 1018.0
20260504034516 45 113 1.0 4.0 0.00 0.00 0.00 75 1017.9
20260504034015 45 113 1.0 3.0 0.00 0.00 0.00 75 1017.9
20260504033516 45 113 1.0 4.0 0.00 0.00 0.00 75 1017.9
20260504033016 46 113 1.0 4.0 0.00 0.00 0.00 75 1017.8
20260504032516 46 113 1.0 2.0 0.00 0.00 0.00 75 1017.8
20260504032016 46 113 1.0 2.0 0.00 0.00 0.00 75 1017.8
20260504031516 46 0.0 1.0 0.00 0.00 0.00 74 1017.8
20260504031016 46 0.0 0.0 0.00 0.00 0.00 74 1017.8
20260504030516 46 0.0 0.0 0.00 0.00 0.00 74 1017.9
20260504030015 46 0.0 0.0 0.00 0.00 0.00 74 1017.9
20260504025515 46 0.0 0.0 0.00 0.00 0.00 73 1017.8
20260504025016 47 0.0 0.0 0.00 0.00 0.00 73 1017.9
20260504024516 47 0.0 0.0 0.00 0.00 0.00 72 1017.9
20260504024015 47 0.0 0.0 0.00 0.00 0.00 72 1017.9
20260504023515 47 0.0 0.0 0.00 0.00 0.00 71 1017.9
20260504023016 48 0.0 0.0 0.00 0.00 0.00 71 1017.9
20260504022515 48 0.0 0.0 0.00 0.00 0.00 70 1017.9
20260504022016 48 0.0 0.0 0.00 0.00 0.00 70 1017.8
20260504021515 48 0.0 2.0 0.00 0.00 0.00 69 1017.8
20260504021016 49 0.0 0.0 0.00 0.00 0.00 68 1017.8
20260504020516 49 0.0 1.0 0.00 0.00 0.00 68 1017.8
20260504020015 49 0.0 1.0 0.00 0.00 0.00 67 1017.8
20260504015515 49 0.0 1.0 0.00 0.00 0.00 67 1017.8
20260504015015 50 225 1.0 2.0 0.00 0.00 0.00 66 1017.8
20260504014515 50 225 2.0 3.0 0.00 0.00 0.00 66 1017.8
20260504014016 50 203 2.0 3.0 0.00 0.00 0.00 65 1017.8
20260504013515 51 180 1.0 3.0 0.00 0.00 0.00 64 1017.7
20260504013015 51 158 1.0 3.0 0.00 0.00 0.00 62 1017.7
20260504012515 51 135 2.0 6.0 0.00 0.00 0.00 62 1017.6
20260504012015 52 135 2.0 5.0 0.00 0.00 0.00 62 1017.6
20260504011517 52 113 3.0 6.0 0.00 0.00 0.00 61 1017.6
20260504011015 52 135 3.0 6.0 0.00 0.00 0.00 61 1017.6
20260504010516 52 135 2.0 4.0 0.00 0.00 0.00 60 1017.7
20260504010016 52 135 3.0 7.0 0.00 0.00 0.00 60 1017.7
20260504005515 53 135 3.0 6.0 0.00 0.00 0.00 59 1017.6
20260504005015 53 135 4.0 7.0 0.00 0.00 0.00 59 1017.6
20260504004515 53 135 4.0 7.0 0.00 0.00 0.00 59 1017.6
20260504004016 53 135 3.0 7.0 0.00 0.00 0.00 59 1017.7
20260504003515 53 135 4.0 8.0 0.00 0.00 0.00 58 1017.6
20260504003015 53 135 4.0 7.0 0.00 0.00 0.00 58 1017.6
20260504002515 53 135 2.0 4.0 0.00 0.00 0.00 58 1017.7
20260504002015 53 158 2.0 4.0 0.00 0.00 0.00 58 1017.8
20260504001516 54 158 3.0 6.0 0.00 0.00 0.00 57 1017.8
20260504001015 54 158 2.0 6.0 0.00 0.00 0.00 57 1017.9
20260504000515 54 135 2.0 6.0 0.00 0.00 0.00 57 1017.9
20260504000015 54 135 3.0 6.0 0.00 0.00 0.00 57 1017.9
20260503235515 54 135 3.0 6.0 0.00 0.00 0.00 57 1018.0
20260503235015 54 158 3.0 7.0 0.00 0.00 0.00 56 1018.1
20260503234515 54 135 3.0 6.0 0.00 0.00 0.00 56 1018.0
20260503234015 54 135 4.0 8.0 0.00 0.00 0.00 56 1018.0
20260503233515 54 135 4.0 9.0 0.00 0.00 0.00 56 1018.0
20260503233015 55 135 4.0 8.0 0.00 0.00 0.00 56 1018.1
20260503232515 55 135 4.0 8.0 0.00 0.00 0.00 55 1018.1
20260503232015 55 135 3.0 8.0 0.00 0.00 0.00 55 1018.1
20260503231515 55 158 3.0 7.0 0.00 0.00 0.00 55 1018.2
20260503231015 55 135 3.0 7.0 0.00 0.00 0.00 55 1018.1
20260503230515 55 135 3.0 8.0 0.00 0.00 0.00 54 1018.2
20260503230017 55 135 3.0 7.0 0.00 0.00 0.00 54 1018.2
20260503225517 55 135 4.0 10.0 0.00 0.00 0.00 53 1018.2
20260503225015 55 135 4.0 9.0 0.00 0.00 0.00 54 1018.2
20260503224517 56 135 5.0 9.0 0.00 0.00 0.00 54 1018.3
20260503224017 56 135 6.0 10.0 0.00 0.00 0.00 54 1018.2
20260503223517 56 135 6.0 10.0 0.00 0.00 0.00 54 1018.2
20260503223015 56 113 5.0 10.0 0.00 0.00 0.00 53 1018.3
20260503222517 56 135 4.0 9.0 0.00 0.00 0.00 54 1018.3
20260503222017 56 135 4.0 8.0 0.00 0.00 0.00 54 1018.4
20260503221517 56 113 4.0 8.0 0.00 0.00 0.00 53 1018.4
20260503221017 56 135 5.0 9.0 0.00 0.00 0.00 53 1018.4
20260503220517 56 113 5.0 8.0 0.00 0.00 0.00 53 1018.3
20260503220017 56 135 4.0 8.0 0.00 0.00 0.00 53 1018.3
20260503215516 57 135 3.0 7.0 0.00 0.00 0.00 54 1018.4
20260503215016 57 135 3.0 7.0 0.00 0.00 0.00 53 1018.4
20260503214516 57 135 4.0 7.0 0.00 0.00 0.00 53 1018.4
20260503214017 57 135 4.0 7.0 0.00 0.00 0.00 53 1018.4
20260503213516 57 135 4.0 7.0 0.00 0.00 0.00 53 1018.3
20260503213016 57 135 4.0 8.0 0.00 0.00 0.00 53 1018.2
20260503212516 58 135 3.0 7.0 0.00 0.00 0.00 53 1018.3
20260503212016 58 135 4.0 7.0 0.00 0.00 0.00 53 1018.3
20260503211516 58 135 4.0 7.0 0.00 0.00 0.00 53 1018.2
20260503211016 58 135 4.0 7.0 0.00 0.00 0.00 53 1018.2
20260503210516 58 113 4.0 8.0 0.00 0.00 0.00 52 1018.2
20260503210016 58 113 4.0 9.0 0.00 0.00 0.00 52 1018.2